Location: Vinland
(47.7731°N, 122.6974°W)
Time: 18:32:39
(UTC+00:00)

Vanguard 1 Rocket - Pass Details

Date: 30 March 2023
Orbit: 654 x 4221 km, 34.3° (Epoch: 29 May)

Event Time Altitude Azimuth Distance (km) Brightness Sun altitude
Rises 07:17:52 0° 249° (WSW) 8,448 12.3 -37.0°
Reaches altitude 10° 07:24:15 10° 246° (WSW) 7,280 11.9 -37.3°
Enters shadow 07:40:49 43° 215° (SW) 4,194 10.3 -38.0°
